Content
SEND FEEDBACK

Daily
Averages
Monthly
Summary
United States of America

SISTERS, OREGON


Home > North America > United States > Oregon
Elevation: 3185 feet     Latitude: 44 17N     Longitude: 121 32W

WEATHER
 
SELECT A DAY
Number of Records: 228,804;   Date Range: 1/1/95 - 8/12/14
 
SHARE

PRINT THIS DATA

[ ← Previous Day ]
WEATHER ALMANAC - APRIL 10, 2014
[ Next Day → ]
[ °C ]   °F
Weather ElementAverageHighLow
Temperature47.4 °F64.9 °F (2:56 pm)26.1 °F (6:56 am)
Dewpoint22.6 °F26.1 °F (10:56 pm)16 °F (12:56 pm)
Humidity44.1 %84 % (6:56 am)18 % (12:56 pm)
Barometer30.12 in30.17 in (1:56 am)30.06 in (7:56 pm)
Wind Speed5.8 mph13.8 mph (2:56 pm)
Wind Gust19.6 mph (2:56 pm)
Weather ElementAverage
Visibility9.9 mi
Wind DirectionSSE (146.4 °)

Weather ElementTotal
Precipitation---
Heating Degree Days19.5 (Base 65)
Averaged from 22 records on April 10, 2014
WEATHER CONDITIONS BREAKOUT
WIND DIRECTION BREAKOUT
WEATHER BY HOUR - APRIL 10, 2014
[ °C ]   °F
Local TimeTemperatureDewpointHumidityBarometerVisibilityWind DirectionWind SpeedGust SpeedPrecipitationEventsConditions
1:56 AM30.9 °F23.0 °F72 %30.17 in10.0 miCalmClear
2:56 AM30.0 °F23.0 °F75 %30.17 in10.0 miCalmClear
3:56 AM28.0 °F21.9 °F78 %30.16 in10.0 miSouth (180°)6.9 mphClear
5:56 AM27.0 °F21.9 °F81 %30.16 in7.0 miSSE (150°)5.8 mphClear
6:56 AM26.1 °F21.9 °F84 %30.17 in10.0 miSE (140°)5.8 mphClear
7:56 AM36.0 °F24.1 °F62 %30.17 in10.0 miSE (130°)6.9 mphClear
8:56 AM43.0 °F25.0 °F49 %30.17 in10.0 miSSE (160°)5.8 mphClear
9:56 AM50.0 °F21.9 °F33 %30.16 in10.0 miSSE (150°)4.6 mphClear
10:56 AM54.0 °F23.0 °F30 %30.16 in10.0 miNW (320°)5.8 mphClear
11:56 AM57.9 °F19.0 °F22 %30.15 in10.0 miESE (120°)4.6 mphClear
12:56 PM60.1 °F16.0 °F18 %30.13 in10.0 miCalmClear
1:56 PM62.1 °F17.1 °F18 %30.12 in10.0 miVariable5.8 mphClear
2:56 PM64.9 °F21.0 °F19 %30.09 in10.0 miNNW (340°)13.8 mph19.6 mphClear
3:56 PM64.9 °F21.9 °F19 %30.08 in10.0 miNorth (350°)9.2 mphClear
4:56 PM64.9 °F23.0 °F20 %30.07 in10.0 miNorth (350°)13.8 mphClear
5:56 PM63.0 °F24.1 °F23 %30.07 in10.0 miNNE (30°)10.4 mphClear
6:56 PM61.0 °F23.0 °F23 %30.07 in10.0 miNNE (20°)10.4 mphClear
7:56 PM55.0 °F25.0 °F31 %30.06 in10.0 miNNE (30°)4.6 mphClear
8:56 PM46.0 °F25.0 °F44 %30.07 in10.0 miNorth (360°)4.6 mphClear
9:56 PM39.0 °F25.0 °F57 %30.08 in10.0 miCalmClear
10:56 PM42.1 °F26.1 °F53 %30.06 in10.0 miSW (230°)4.6 mphClear
11:56 PM37.9 °F25.0 °F60 %30.07 in10.0 miSSE (160°)4.6 mphClear
Hourly data recorded from KRDM, located miles away from Sisters, Oregon







STORIES FROM OUR PARTNERS